Regional Weather Roundup
Issued by NWS

Home | Current Version | Previous Version | Text Only | Print | Product List | Glossary Off
Versions: 1 2 3 4 5 6 7 8 9 10 11 12 13 14 15 16 17 18 19 20 21 22 23 24 25 26 27 28 29 30 31 32 33 34 35 36 37 38 39 40 41 42 43 44 45 46 47 48 49 50

000
ASUS45 KSLC 241710
RWRUT

UTAH REGIONAL WEATHER ROUNDUP
NATIONAL WEATHER SERVICE SALT LAKE CITY UT
1100 AM MDT FRI APR 24 2015

UTZ001>011-023>025-241800-

NORTHERN UTAH

CITY           SKY/WX    TMP DP  RH WIND       PRES   REMARKS
BRIGHAM CITY   CLOUDY    60  31  34 S15G22    29.72S
HILL AFB       PTSUNNY   58  34  40 S13       29.73S
LOGAN          PTSUNNY   59  36  42 S15       29.71S
OGDEN          CLOUDY    60  34  37 S12       29.72S
PROVO AIRPORT  PTSUNNY   63  30  29 S6        29.76F
SALT LAKE CITY PTSUNNY   61  32  33 S17G25    29.71S
VERNAL         SUNNY     56  33  42 VRB5      29.76F
WENDOVER       PTSUNNY   61  36  39 E5        29.70S
HEBER CITY     MOSUNNY   59  28  31 SW15      29.76S
WEST JORDAN    SUNNY     61  36  39 S17G25    29.74F

$$

UTZ012>022-026-027-241800-

SOUTHERN/CENTRAL UTAH

CITY           SKY/WX    TMP DP  RH WIND       PRES   REMARKS
BLANDING       PTSUNNY   55  27  34 SW9G18    29.94R
BRYCE CANYON   PTSUNNY   47  24  40 W10       29.91R
CEDAR CITY     MOSUNNY   57  31  37 SW20      29.84S
DELTA          SUNNY     61  30  30 SW24      29.77S
HANKSVILLE     SUNNY     63  25  23 CALM      29.79S
MILFORD        SUNNY     60  31  33 SW24G30   29.80F
MOAB/CYNLANDS  SUNNY     64  25  22 S6        29.75S
PRICE          SUNNY     59  24  26 SE8       29.78F
ST GEORGE      MOSUNNY   64  32  29 N3        29.85F
KANAB          SUNNY     57  32  38 S14G20    29.92S

$$

REGIONAL REPORTS     COLORADO/ARIZONA

CITY           SKY/WX    TMP DP  RH WIND       PRES   REMARKS
CRAIG, CO      MOSUNNY   57  29  34 W7        29.77F
GRAND JUNCTION MOSUNNY   62  27  26 MISG      29.76S
RIFLE          MOSUNNY   54  31  41 NW5       29.78F
MONTROSE       CLOUDY    58  25  28 N5        29.82F
CORTEZ         PTSUNNY   59  27  29 S13G23    29.88S
PAGE, AZ       SUNNY     63  30  28 VRB5      29.85S
GRAND CANYON   MOSUNNY   52  32  46 SW13G24   29.96S
KINGMAN        NOT AVBL
FLAGSTAFF      LGT RAIN  44  37  76 SW13      29.99S

$$

REGIONAL REPORTS    NEVADA/IDAHO/WYOMING

CITY           SKY/WX    TMP DP  RH WIND       PRES   REMARKS
LAS VEGAS, NV  MOSUNNY   69  41  36 S18G28    29.77R
ELY            CLOUDY    50  33  52 SW15G25   29.81R
ELKO           CLOUDY    47  39  74 W16       29.77R
POCATELLO, ID  SUNNY     54  39  57 SW13      29.71F
BURLEY         CLOUDY    51  38  60 W18G25    29.71S
EVANSTON, WY   MOSUNNY   52  31  44 SW18G28   29.78F
ROCK SPRINGS   SUNNY     53  30  41 W14       29.77S
KEMMERER       PTSUNNY   46  32  57 W17G23    29.79S

$$



USA.gov is the U.S. government's official web portal to all federal, state and local government web resources and services.